Regional Weather Roundup
Issued by NWS

Home | Current Version | Previous Version | Text Only | Print | Product List | Glossary Off
Versions: 1 2 3 4 5 6 7 8 9 10 11 12 13 14 15 16 17 18 19 20 21 22 23 24 25 26 27 28 29 30 31 32 33 34 35 36 37 38 39 40 41 42 43 44 45 46 47 48 49 50

713
ASUS43 KDTX 221610
RWRMI
MICHIGAN HOURLY REGIONAL WEATHER ROUNDUP
NATIONAL WEATHER SERVICE DETROIT/PONTIAC MI
1200 PM EDT THU JUN 22 2017

NOTE: "FAIR" INDICATES FEW OR NO CLOUDS BELOW 12,000 FEET WITH NO
SIGNIFICANT WEATHER AND/OR OBSTRUCTION TO VISIBILITY.

MIZ047>049-052>055-059>063-066>070-074>076-081>083-221700-
SOUTHEAST LOWER MICHIGAN

CITY           SKY/WX    TMP DP  RH WIND       PRES   REMARKS
ADRIAN         CLOUDY    76  68  76 SW12      29.93F
ALMA           CLOUDY    79  69  73 SW8       29.80F
ANN ARBOR      PTSUNNY   75  68  78 S8        29.91F
BAD AXE        CLOUDY    65  62  90 S8        29.85F
CARO           CLOUDY    71  66  83 SE5       29.82F
DETROIT CITY   CLOUDY    75  65  70 SW10      29.90S
DETROIT        CLOUDY    72  66  81 S9        29.91F
FLINT          CLOUDY    83  66  56 SW15      29.84F
GROSSE ILE     CLOUDY    71  68  89 MISG      29.91F
HILLSDALE      CLOUDY    75  66  73 SW8       29.93S
HOWELL         MOSUNNY   83  63  50 SW13G20   29.87F

CITY           SKY/WX    TMP DP  RH WIND       PRES   REMARKS
JACKSON        CLOUDY    79  67  66 SW13G21   29.90F
LAMBERTVILLE   CLOUDY    76  68  75 SW7       29.93F
LANSING        PTSUNNY   84  65  52 SW15      29.85F
LAPEER         NOT AVBL
MASON          MOSUNNY   83  67  56 SW6       29.87F
MONROE         CLOUDY    79  69  72 SW9       29.92F
MT. CLEMENS    PTSUNNY   80  66  62 SW12      29.86F
PONTIAC        PTSUNNY   80  65  59 SW9       29.87F
PORT HOPE        N/A     67  61  81 S10       29.82F
PORT HURON     MOSUNNY   77  64  65 S12       29.86F
TRI CITIES     PTSUNNY   71  64  78 CALM      29.81F
MIDLAND        FAIR      69  61  76 SE5       29.80F
TROY           CLOUDY    80  63  55 SW8       29.90F
SAGINAW HB     CLOUDY    73  63  68 S8        29.79F
$$
MIZ043>046-050>051-056>058-064>065-071>073-077>080-221700-
SOUTHWEST LOWER MICHIGAN

CITY           SKY/WX    TMP DP  RH WIND       PRES   REMARKS
BATTLE CREEK   LGT RAIN  81  68  64 SW13      29.88F
BENTON HARBOR  CLOUDY    86  62  44 S15G28    29.85F
BIG RAPIDS     MOSUNNY   74  66  78 SW8       29.79R
COLDWATER      CLOUDY    76  68  77 SW8       29.91F
FREMONT        FAIR      78  66  66 SW17G26   29.78F
HOLLAND        MOSUNNY   83  67  58 SW22G30   29.83F
GRAND RAPIDS   PTSUNNY   84  68  58 SW14      29.82F
IONIA          FAIR      82  65  57 SW14G21   29.82F
KALAMAZOO      CLOUDY    83  66  56 SW13      29.87F
LUDINGTON      CLOUDY    75  68  78 SW15      29.77R
MARSHALL       CLOUDY    77  69  75 SW10      29.89F
MOUNT PLEASANT PTSUNNY   70  65  82 SE3       29.79F
MUSKEGON       CLOUDY    76  66  71 S18G28    29.80F
SOUTH HAVEN    CLOUDY    83  65  55 SW16G24   29.85S
$$
MIZ016>042-221700-
NORTHERN LOWER MICHIGAN

CITY           SKY/WX    TMP DP  RH WIND       PRES   REMARKS
ALPENA         CLOUDY    66  64  93 S9        29.77S
BEAVER ISLAND  CLOUDY    68  63  83 SW17G24   29.71F
BELLAIRE       MOSUNNY   74  65  74 SW8       29.72F
CADILLAC       MOSUNNY   75  68  79 SW12G17   29.78S
CHARLEVOIX     CLOUDY    69  67  94 SW5       29.74F
FRANKFORT      PTSUNNY   72  64  76 SW10      29.75R
GAYLORD        CLOUDY    71  64  78 SW10      29.75F
GRAYLING       MOSUNNY   74  67  79 SW6       29.75F
HARBOR SPRINGS CLOUDY    65  65 100 CALM      29.73S
HOUGHTON LAKE  PTSUNNY   71  66  84 SW8       29.78F
MANISTEE       CLOUDY    76  68  76 SW8       29.75S
OSCODA         CLOUDY    68  63  84 S15       29.80F
PELLSTON       CLOUDY    65  61  87 SE3       29.73F
ROGERS CITY    CLOUDY    67  63  86 S13G20    29.75S
TRAVERSE CITY  CLOUDY    77  66  68 VRB7G18   29.71F
$$
MIZ007>008-015-221700-
EASTERN UPPER MICHIGAN

CITY           SKY/WX    TMP DP  RH WIND       PRES   REMARKS
KINROSS        CLOUDY    62  60  93 SE8       29.72F
MACKINAC ISLAN CLOUDY    62  62 100 S7        29.72S
NEWBERRY       CLOUDY    63  62  97 S6        29.71S
S. S. MARIE    CLOUDY    64  58  80 SE7       29.72F
MUNISING         N/A     70  63  78 S6        29.65F
$$
MIZ004>006-011>014-085-221700-
CENTRAL UPPER MICHIGAN

CITY           SKY/WX    TMP DP  RH WIND       PRES   REMARKS
MANISTIQUE     CLOUDY    63  60  90 S6        29.70S
ESCANABA       CLOUDY    72  64  76 SE5       29.68F
MENOMINEE      CLOUDY    75  67  76 SW8       29.70F
SAWYER-GWINN   SUNNY     64  59  82 S8        29.68F
$$
MIZ001>003-009>011-084-221700-
WESTERN UPPER MICHIGAN

CITY           SKY/WX    TMP DP  RH WIND       PRES   REMARKS
IRON MOUNTAIN  CLOUDY    74  62  66 W9        29.67F
HOUGHTON       CLOUDY    63  55  75 W13       29.64S
COPPER HARBOR    N/A     65  56  72 VRB7G18   29.61F
IRONWOOD       CLOUDY    69  60  73 W6        29.69F
$$

ABBREVIATIONS USED IN REMARKS
   TC - TEMPERATURE IN CELSIUS
  WCI - WIND CHILL INDEX
   HX - HEAT INDEX
  VSB - VISIBILITY





USA.gov is the U.S. government's official web portal to all federal, state and local government web resources and services.